Hourly Weather Godzieby

Today, 15 May, Saturday

Time Temperature Precipitation Wind Pressure Humidity
00:00 +10°C° 0 mm 2 mps 738 mmHg 92%
01:00 +10°C° 0 mm 2 mps 739 mmHg 93%
02:00 +10°C° 0 mm 3 mps 739 mmHg 95%
03:00 +9°C° 0 mm 3 mps 739 mmHg 96%
04:00 +9°C° 0 mm 3 mps 739 mmHg 97%
05:00 +9°C° 0 mm 3 mps 740 mmHg 97%
06:00 +10°C° 0 mm 4 mps 740 mmHg 95%
07:00 +10°C° 0 mm 4 mps 740 mmHg 93%
08:00 +11°C° 0 mm 4 mps 741 mmHg 91%
09:00 +12°C° 0 mm 4 mps 741 mmHg 88%
10:00 +12°C° 0 mm 4 mps 741 mmHg 86%
11:00 +12°C° 0 mm 3 mps 742 mmHg 83%
12:00 +13°C° 0 mm 4 mps 742 mmHg 82%
13:00 +13°C° 0 mm 4 mps 742 mmHg 80%
14:00 +13°C° 0 mm 4 mps 742 mmHg 78%
15:00 +14°C° 0.1 mm 4 mps 742 mmHg 76%
16:00 +16°C° 0.1 mm 3 mps 742 mmHg 74%
17:00 +16°C° 0.1 mm 3 mps 742 mmHg 72%
18:00 +14°C° 0 mm 3 mps 742 mmHg 76%
19:00 +14°C° 0 mm 2 mps 742 mmHg 80%
20:00 +13°C° 0 mm 1 mps 742 mmHg 84%
21:00 +12°C° 0 mm 1 mps 742 mmHg 84%
22:00 +11°C° 0 mm 1 mps 742 mmHg 84%
23:00 +11°C° 0 mm 1 mps 742 mmHg 85%

Tomorrow, 16 May, Sunday

Time Temperature Precipitation Wind Pressure Humidity
00:00 +10°C° 0 mm 1 mps 742 mmHg 86%
01:00 +9°C° 0 mm 2 mps 742 mmHg 88%
02:00 +9°C° 0 mm 2 mps 742 mmHg 89%
03:00 +9°C° 0 mm 2 mps 742 mmHg 90%
04:00 +9°C° 0 mm 3 mps 742 mmHg 91%
05:00 +9°C° 0 mm 3 mps 742 mmHg 91%
06:00 +10°C° 0 mm 3 mps 742 mmHg 87%
07:00 +12°C° 0 mm 3 mps 742 mmHg 82%
08:00 +13°C° 0 mm 4 mps 742 mmHg 77%
09:00 +14°C° 0.1 mm 4 mps 742 mmHg 75%
10:00 +15°C° 0.1 mm 4 mps 742 mmHg 74%
11:00 +16°C° 0.1 mm 5 mps 742 mmHg 72%
12:00 +17°C° 0.5 mm 5 mps 741 mmHg 72%
13:00 +17°C° 0.5 mm 5 mps 741 mmHg 73%
14:00 +19°C° 0.5 mm 6 mps 740 mmHg 73%
15:00 +19°C° 0.6 mm 5 mps 740 mmHg 74%
16:00 +19°C° 0.6 mm 4 mps 740 mmHg 76%
17:00 +19°C° 0.6 mm 4 mps 739 mmHg 77%
18:00 +17°C° 0.5 mm 4 mps 739 mmHg 81%
19:00 +16°C° 0.5 mm 3 mps 739 mmHg 85%
20:00 +14°C° 0.5 mm 3 mps 739 mmHg 89%
21:00 +13°C° 0.2 mm 3 mps 739 mmHg 91%
22:00 +13°C° 0.2 mm 3 mps 739 mmHg 93%
23:00 +12°C° 0.2 mm 3 mps 739 mmHg 96%

Day after tomorrow, 17 May, Monday

Time Temperature Precipitation Wind Pressure Humidity
00:00 +12°C° 0.1 mm 3 mps 739 mmHg 95%
01:00 +11°C° 0.1 mm 3 mps 739 mmHg 95%
02:00 +11°C° 0.1 mm 3 mps 739 mmHg 94%
03:00 +10°C° 0 mm 3 mps 739 mmHg 95%
04:00 +10°C° 0 mm 3 mps 740 mmHg 95%
05:00 +9°C° 0 mm 2 mps 740 mmHg 96%
06:00 +10°C° 0 mm 2 mps 740 mmHg 91%
07:00 +13°C° 0 mm 2 mps 741 mmHg 86%
08:00 +14°C° 0 mm 2 mps 741 mmHg 82%
09:00 +14°C° 0 mm 3 mps 741 mmHg 76%
10:00 +16°C° 0 mm 3 mps 741 mmHg 70%
11:00 +18°C° 0 mm 3 mps 741 mmHg 65%
12:00 +18°C° 0.1 mm 3 mps 740 mmHg 63%
13:00 +18°C° 0.1 mm 2 mps 740 mmHg 61%
14:00 +19°C° 0.1 mm 2 mps 740 mmHg 59%
15:00 +18°C° 0.1 mm 2 mps 740 mmHg 61%
16:00 +18°C° 0.1 mm 2 mps 740 mmHg 63%
17:00 +18°C° 0.1 mm 2 mps 739 mmHg 66%
18:00 +17°C° 0.1 mm 2 mps 739 mmHg 70%
19:00 +16°C° 0.1 mm 1 mps 739 mmHg 73%
20:00 +14°C° 0.1 mm 1 mps 739 mmHg 77%
21:00 +14°C° 0.1 mm 1 mps 739 mmHg 80%
22:00 +13°C° 0.1 mm 2 mps 738 mmHg 84%
23:00 +12°C° 0.1 mm 2 mps 738 mmHg 87%

18 May, Tuesday

Time Temperature Precipitation Wind Pressure Humidity
00:00 +12°C° 0.5 mm 2 mps 738 mmHg 90%
01:00 +11°C° 0.5 mm 3 mps 738 mmHg 92%
02:00 +10°C° 0.5 mm 3 mps 738 mmHg 95%
03:00 +10°C° 2.2 mm 3 mps 738 mmHg 96%
04:00 +10°C° 2.2 mm 3 mps 738 mmHg 97%
05:00 +10°C° 2.2 mm 3 mps 738 mmHg 98%
06:00 +10°C° 0.9 mm 3 mps 738 mmHg 97%
07:00 +10°C° 0.9 mm 3 mps 738 mmHg 96%
08:00 +10°C° 0.9 mm 2 mps 738 mmHg 96%
09:00 +11°C° 0.2 mm 3 mps 738 mmHg 93%
10:00 +11°C° 0.2 mm 4 mps 738 mmHg 91%
11:00 +12°C° 0.2 mm 5 mps 739 mmHg 88%
12:00 +13°C° 0.4 mm 6 mps 739 mmHg 86%
13:00 +13°C° 0.4 mm 6 mps 739 mmHg 83%
14:00 +14°C° 0.4 mm 6 mps 739 mmHg 80%
15:00 +14°C° 0.5 mm 6 mps 739 mmHg 81%
16:00 +14°C° 0.5 mm 6 mps 739 mmHg 82%
17:00 +14°C° 0.5 mm 6 mps 739 mmHg 83%
18:00 +13°C° 0.3 mm 5 mps 739 mmHg 86%
19:00 +12°C° 0.3 mm 4 mps 739 mmHg 89%
20:00 +10°C° 0.3 mm 3 mps 740 mmHg 92%
21:00 +10°C° 0 mm 3 mps 740 mmHg 93%
22:00 +9°C° 0 mm 3 mps 740 mmHg 94%
23:00 +8°C° 0 mm 3 mps 740 mmHg 96%

19 May, Wednesday

Time Temperature Precipitation Wind Pressure Humidity
00:00 +8°C° 0 mm 3 mps 740 mmHg 96%
01:00 +8°C° 0 mm 3 mps 740 mmHg 97%
02:00 +8°C° 0 mm 4 mps 741 mmHg 97%
03:00 +8°C° 0.1 mm 4 mps 741 mmHg 97%
04:00 +7°C° 0.1 mm 4 mps 741 mmHg 97%
05:00 +7°C° 0.1 mm 4 mps 741 mmHg 96%
06:00 +8°C° 0.1 mm 5 mps 742 mmHg 95%
07:00 +8°C° 0.1 mm 5 mps 742 mmHg 93%
08:00 +8°C° 0.1 mm 5 mps 742 mmHg 91%
09:00 +9°C° 0.1 mm 6 mps 743 mmHg 87%
10:00 +10°C° 0.1 mm 6 mps 743 mmHg 83%
11:00 +11°C° 0.1 mm 6 mps 743 mmHg 79%
12:00 +11°C° 0.2 mm 6 mps 743 mmHg 75%
13:00 +13°C° 0.2 mm 6 mps 743 mmHg 72%
14:00 +14°C° 0.2 mm 6 mps 743 mmHg 68%
15:00 +14°C° 0.2 mm 6 mps 743 mmHg 69%
16:00 +13°C° 0.2 mm 6 mps 743 mmHg 70%
17:00 +13°C° 0.2 mm 5 mps 744 mmHg 71%
18:00 +12°C° 0 mm 5 mps 744 mmHg 75%
19:00 +11°C° 0 mm 4 mps 744 mmHg 80%
20:00 +10°C° 0 mm 3 mps 744 mmHg 84%
21:00 +9°C° 0 mm 3 mps 744 mmHg 87%
22:00 +8°C° 0 mm 3 mps 745 mmHg 89%
23:00 +7°C° 0 mm 3 mps 745 mmHg 92%

20 May, Thursday

Time Temperature Precipitation Wind Pressure Humidity
00:00 +5°C° 0 mm 3 mps 745 mmHg 92%
01:00 +5°C° 0 mm 3 mps 745 mmHg 92%
02:00 +4°C° 0 mm 3 mps 745 mmHg 92%
03:00 +4°C° 0 mm 3 mps 745 mmHg 92%
04:00 +4°C° 0 mm 3 mps 746 mmHg 93%
05:00 +4°C° 0 mm 3 mps 746 mmHg 93%
06:00 +7°C° 0 mm 3 mps 746 mmHg 88%
07:00 +7°C° 0 mm 4 mps 746 mmHg 83%
08:00 +9°C° 0 mm 5 mps 746 mmHg 78%
09:00 +10°C° 0.3 mm 5 mps 746 mmHg 76%
10:00 +12°C° 0.3 mm 5 mps 746 mmHg 74%
11:00 +13°C° 0.3 mm 6 mps 746 mmHg 72%
12:00 +13°C° 0.4 mm 5 mps 746 mmHg 74%
13:00 +12°C° 0.4 mm 5 mps 746 mmHg 77%
14:00 +12°C° 0.4 mm 5 mps 746 mmHg 80%
15:00 +12°C° 0.3 mm 5 mps 746 mmHg 78%
16:00 +13°C° 0.3 mm 5 mps 746 mmHg 76%
17:00 +13°C° 0.3 mm 5 mps 746 mmHg 74%
18:00 +12°C° 0.2 mm 4 mps 746 mmHg 79%
19:00 +10°C° 0.2 mm 3 mps 746 mmHg 83%
20:00 +9°C° 0.2 mm 3 mps 746 mmHg 88%
21:00 +8°C° 0 mm 3 mps 746 mmHg 90%
22:00 +8°C° 0 mm 3 mps 746 mmHg 91%
23:00 +7°C° 0 mm 3 mps 746 mmHg 93%
Show more